Wind_Speed
9 10 10 12 14 18 21 26 24 24 23 24 26 24 20 21 23 29 34 39 37 35 36 36 39 39 39 38 36 35 34 31 29 29 29 29 29 30 30 30 31 31 30 30 30 30 29 30 31
13 15 16 17 20 27 27 22 25 23 26 26 26 23 21 19 24 29 31 30 29 31 33 35 37 38 38 38 38 38 35 32 30 30 29 30 31 32 32 32 33 33 32 32 32 32 32 32 33
17 19 19 18 28 26 25 22 24 25 25 27 32 28 22 23 25 28 28 27 29 29 31 33 35 36 38 39 38 37 36 33 31 29 29 31 34 35 36 36 34 35 34 34 33 35 35 34 34
23 23 22 21 24 27 20 24 27 25 31 34 32 33 29 26 30 29 27 28 28 29 31 32 33 33 34 33 35 33 31 33 31 30 29 34 37 37 36 36 37 38 37 35 35 33 34 34 32
23 25 26 28 27 26 23 30 33 31 31 33 38 32 29 29 34 32 29 27 28 29 30 28 29 28 30 28 27 29 29 30 31 31 34 36 37 38 38 39 39 39 38 35 35 35 35 35 37
29 30 33 33 28 25 22 33 36 35 32 33 37 38 33 30 36 30 26 24 30 28 27 28 29 31 32 31 29 30 29 30 30 33 36 37 37 37 39 40 41 39 38 39 40 40 41 41 42
37 41 37 38 31 30 24 32 34 33 35 37 39 37 34 35 30 25 26 27 29 26 25 29 31 33 31 32 34 38 37 38 38 37 37 40 39 39 40 41 40 39 38 39 41 43 44 45 45
35 43 40 39 37 36 27 31 37 38 39 42 44 39 32 33 28 23 25 29 28 25 23 28 31 35 36 37 37 38 38 41 44 43 42 41 39 40 40 38 35 37 38 40 40 41 42 42 43
41 45 39 36 41 32 32 33 32 39 42 39 47 41 34 38 29 28 26 28 26 22 25 30 33 35 38 39 39 37 37 40 41 43 42 40 38 36 33 31 32 35 40 43 43 45 45 45 46
46 42 36 40 38 39 38 42 35 39 44 48 40 36 36 39 32 31 26 24 22 24 27 29 33 35 39 40 40 41 38 37 37 37 38 38 37 34 31 30 33 38 38 40 42 45 45 44 43
48 46 42 44 41 45 44 42 41 42 37 31 31 35 38 30 27 23 25 23 22 27 31 34 37 39 40 41 42 41 36 33 34 35 35 35 34 33 32 34 38 40 36 38 39 39 39 42 42
54 48 45 41 40 43 45 51 44 36 32 27 33 35 28 22 22 23 24 21 23 29 34 38 39 39 39 41 39 36 32 31 34 33 34 32 29 29 32 34 37 37 38 35 34 36 38 39 38
55 48 47 44 42 43 49 47 37 29 24 29 32 25 17 21 24 23 19 19 23 31 34 34 36 36 40 39 36 33 30 32 32 33 29 31 31 30 31 31 32 35 35 30 29 31 32 32 31
51 51 48 45 37 43 35 30 28 12 23 29 28 14 17 23 20 16 17 20 22 27 32 36 38 35 37 37 35 31 31 32 32 31 31 30 30 29 30 33 33 33 28 25 24 26 29 32 31
55 56 51 32 33 21 33 27 23 15 26 23 21 16 19 18 17 19 18 18 19 26 33 34 32 33 37 36 33 30 32 32 32 32 31 27 26 27 28 31 31 28 25 24 25 28 31 32 32
60 57 40 27 32 19 34 14 15 26 24 18 14 15 11 15 19 16 12 14 18 25 32 35 30 31 34 32 30 30 31 33 32 34 31 30 29 26 28 28 29 24 23 24 25 27 31 32 31
63 46 37 29 29 27 35 26 23 23 22 16 12 13 13 15 16 16 14 18 22 26 30 35 29 30 29 29 29 30 31 33 33 32 27 26 29 27 30 28 25 21 22 20 20 22 24 27 29
53 49 45 32 15 28 34 34 24 23 25 18 13 11 13 14 11 13 19 24 27 29 29 31 28 28 29 31 30 29 31 33 30 30 30 31 27 24 24 26 21 19 19 17 16 15 15 20 25
56 52 45 29 18 33 33 31 18 27 28 18 11 12 12 16 12 18 20 25 32 37 33 29 27 29 30 30 29 29 31 30 31 33 29 25 19 21 25 26 18 18 16 13 12 12 15 19 22
54 52 42 29 15 35 31 32 25 26 25 15 11 9 14 17 13 17 23 29 34 40 34 27 27 27 26 27 27 28 29 28 32 26 21 20 21 23 27 22 13 13 11 10 12 12 13 19 21
48 47 32 28 19 35 38 34 27 26 18 11 10 11 14 13 15 18 25 34 40 41 29 25 25 23 25 25 25 27 26 25 26 25 23 25 29 27 24 15 11 10 4 2 13 15 20 22 21
42 28 26 28 27 33 38 43 27 25 12 15 14 16 10 12 13 18 25 30 35 28 22 21 21 24 23 23 24 26 23 24 23 25 25 26 26 17 14 9 6 2 3 8 13 22 21 20 23
26 28 30 28 32 36 35 41 15 19 12 16 18 10 9 8 12 17 21 24 21 20 20 20 22 22 22 22 24 23 21 22 22 25 23 21 21 17 9 4 2 5 9 13 15 18 20 23 25
34 33 32 33 37 47 31 38 9 16 18 14 4 7 11 8 14 22 18 18 19 17 18 18 20 20 21 23 22 18 19 21 22 24 20 18 17 11 3 1 3 9 14 14 15 19 22 26 27
39 38 38 41 46 46 26 32 14 16 12 6 5 7 11 9 16 14 14 17 16 15 14 18 19 20 19 20 15 16 19 19 21 19 18 18 14 8 4 5 7 11 16 18 20 23 25 24 27
37 41 44 47 48 37 28 24 13 17 8 5 4 7 7 10 12 13 14 13 12 11 15 17 17 16 18 17 14 17 18 16 21 16 17 16 10 4 7 9 12 15 17 21 25 23 21 20 22
38 48 41 41 37 39 35 21 23 10 4 2 4 4 7 13 18 17 14 13 12 11 15 15 16 15 18 16 14 16 13 16 17 13 16 9 8 9 10 12 13 18 19 21 29 21 21 19 21
40 45 42 45 43 40 28 24 15 9 5 4 4 4 9 16 19 11 12 12 7 11 11 14 14 14 16 12 11 10 10 17 16 12 8 11 9 11 11 11 11 13 19 25 20 20 21 21 23
42 47 44 42 39 34 25 21 16 11 10 5 2 6 11 15 11 9 11 10 11 9 10 13 11 12 11 11 6 8 9 15 13 12 8 11 10 12 12 12 14 16 20 23 20 22 20 18 17
41 40 36 39 34 30 26 20 20 14 7 5 4 4 16 12 12 9 11 11 12 8 9 11 9 9 9 7 5 7 9 11 11 14 10 10 11 12 12 14 16 18 19 21 23 18 20 19 20
Wind_Direction
255 268 274 290 312 317 318 312 307 297 286 287 280 281 285 292 289 297 293 293 295 295 294 294 295 297 297 296 293 291 288 286 282 279 273 272 273 272 269 267 267 271 273 273 272 269 263 257 254
255 261 272 285 310 313 310 302 289 287 281 286 288 278 291 293 292 291 290 296 301 299 295 294 294 292 293 292 288 285 280 282 282 279 280 281 279 274 270 266 265 270 272 273 272 271 269 262 256
256 260 267 285 309 317 309 300 301 291 280 273 281 287 289 299 291 294 312 315 311 306 300 298 293 292 292 292 292 291 284 279 276 276 280 278 277 276 273 270 268 271 272 271 269 270 270 264 255
256 260 268 287 302 313 296 291 291 283 283 288 295 297 295 303 298 309 317 313 312 308 306 303 304 304 301 299 293 291 287 281 280 280 278 278 279 276 275 275 277 276 272 268 264 265 266 257 250
259 260 266 287 297 305 300 294 299 290 287 291 290 297 301 300 305 311 317 313 316 311 308 308 307 305 308 304 300 294 287 282 282 282 283 284 283 278 275 274 274 275 275 272 269 267 264 258 255
263 260 268 279 287 294 296 291 289 293 293 302 299 294 296 297 298 305 312 311 311 305 311 302 300 302 300 300 304 299 289 285 283 282 283 286 282 278 279 279 278 275 273 271 269 267 265 263 261
258 260 266 276 286 289 290 287 285 287 286 287 300 289 291 288 289 306 311 305 306 303 312 302 301 301 304 313 310 307 302 296 293 289 287 286 283 281 281 280 278 273 269 267 266 266 267 264 261
259 263 269 280 285 284 276 275 277 278 283 293 300 295 294 294 293 313 310 304 297 303 310 304 305 308 309 310 305 301 296 292 291 290 290 287 283 281 281 280 280 275 272 273 270 263 268 262 257
265 270 279 284 286 278 283 284 278 274 281 291 297 291 293 293 299 312 305 294 297 307 307 302 306 309 308 305 303 304 297 286 285 286 286 284 283 281 279 279 283 286 279 273 272 267 267 261 258
276 280 288 291 285 282 286 292 291 274 268 279 282 278 280 283 300 307 289 294 292 300 296 301 305 308 304 299 300 302 302 296 291 289 290 289 286 284 279 279 282 290 281 274 269 266 268 263 255
278 279 283 283 290 283 288 289 290 289 275 278 265 269 272 286 295 282 280 295 299 304 300 301 301 302 301 299 299 300 300 296 295 295 291 286 281 276 273 279 286 287 281 279 273 268 263 259 252
269 272 280 285 285 283 290 293 287 278 269 268 262 264 280 294 289 279 277 292 302 299 300 299 294 296 302 304 300 304 301 302 304 300 299 297 291 282 280 287 287 285 287 282 276 267 262 258 253
266 273 275 278 288 290 292 294 283 257 270 259 257 266 293 296 282 270 287 293 301 301 298 302 301 306 305 303 308 307 306 311 306 307 303 297 292 287 285 287 288 287 287 279 269 262 253 245 244
264 269 271 277 289 298 293 285 266 271 249 249 255 280 281 281 269 291 294 289 303 308 307 308 305 305 305 312 311 307 315 311 309 309 308 301 293 290 288 292 294 293 284 277 267 257 248 242 239
260 264 267 278 293 294 293 268 266 244 243 256 271 265 266 266 307 313 300 286 303 312 313 309 309 308 309 312 309 312 315 312 313 313 309 310 301 294 296 298 297 295 283 275 267 258 251 246 238
258 261 269 270 279 287 276 280 239 233 246 270 254 245 280 320 324 326 305 286 293 307 311 309 308 305 310 310 307 312 315 315 313 309 304 301 300 301 309 300 302 289 283 281 276 263 251 241 231
253 262 264 270 272 277 262 256 238 239 251 245 256 281 296 307 326 338 343 328 309 303 305 307 305 303 310 308 309 315 313 314 312 312 311 300 301 300 306 303 300 287 288 287 273 259 243 228 218
257 262 267 264 243 266 251 261 247 253 253 255 255 270 280 301 323 315 325 323 325 320 312 308 300 303 308 309 313 313 310 312 313 313 309 306 300 298 311 313 302 293 296 287 269 249 219 210 206
256 262 261 235 246 259 259 264 257 260 268 260 248 257 284 311 318 314 316 323 318 322 316 305 300 307 307 309 312 312 313 314 312 312 314 310 299 305 309 312 299 300 298 278 248 220 226 210 204
251 254 256 227 238 257 252 254 258 270 270 271 260 279 305 307 301 302 314 309 305 313 310 297 308 311 311 309 312 313 316 317 321 325 325 321 311 310 312 310 298 298 297 271 229 203 185 167 169
247 249 243 234 229 246 258 261 266 271 262 266 255 290 294 302 307 301 293 291 298 305 299 302 308 311 308 312 312 315 318 319 319 329 329 323 314 305 311 305 302 301 310 198 171 172 160 163 157
242 226 242 244 238 242 256 264 256 260 261 267 280 280 300 298 295 293 288 286 295 297 301 310 310 310 311 307 309 317 314 321 326 333 332 322 326 322 318 304 301 301 116 124 152 155 155 155 157
213 237 246 239 234 241 234 260 253 246 254 272 268 273 278 284 307 293 287 295 290 293 310 309 313 313 306 301 310 311 319 323 331 334 331 320 326 326 320 304 262 147 137 120 135 147 153 153 158
223 236 238 234 233 241 235 251 214 228 241 248 241 270 259 287 304 311 290 290 290 299 306 310 316 312 303 307 310 310 320 325 332 334 327 325 333 340 321 151 152 148 145 126 137 144 153 153 156
228 231 231 235 236 243 243 242 201 221 215 196 241 267 286 329 323 315 300 290 289 302 307 316 316 308 306 315 310 321 323 329 333 335 329 337 343 354 109 123 134 143 139 129 135 142 147 149 160
229 236 236 236 235 245 233 234 210 212 192 176 219 269 320 334 323 305 313 302 306 306 319 315 312 308 307 312 307 320 322 335 341 337 335 344 4 65 94 108 121 139 137 138 132 139 145 149 158
234 233 236 241 241 246 244 221 212 215 208 205 210 298 340 331 319 291 299 308 296 315 312 308 310 300 308 314 304 312 327 333 349 339 342 10 47 110 105 105 124 139 146 144 139 130 148 146 150
220 236 222 225 226 234 228 220 195 212 232 208 255 330 355 311 314 307 322 315 313 312 303 311 311 307 313 321 319 319 334 351 351 2 12 46 78 123 115 99 119 138 147 149 145 150 143 145 148
216 218 213 224 230 230 224 222 203 210 226 196 173 339 327 308 340 327 323 311 321 304 308 316 313 308 334 343 336 334 354 10 25 37 45 51 95 124 116 109 114 132 143 151 145 147 155 149 144
212 222 219 226 221 221 223 196 204 209 202 190 136 314 300 333 351 311 316 304 316 298 306 318 310 307 2 351 359 12 12 22 38 49 29 75 106 125 116 121 128 133 136 142 157 147 152 163 155
Height
5891 5891 5890 5889 5892 5889 5887 5884 5884 5882 5882 5879 5877 5878 5880 5879 5877 5875 5871 5865 5861 5858 5854 5850 5846 5843 5841 5840 5838 5837 5834 5831 5829 5828 5827 5827 5827 5827 5826 5826 5826 5826 5825 5825 5826 5827 5829 5831 5832
5888 5889 5888 5887 5887 5886 5885 5882 5879 5881 5878 5873 5873 5874 5876 5875 5872 5869 5865 5861 5857 5853 5849 5845 5840 5836 5833 5831 5829 5827 5825 5824 5821 5820 5819 5817 5818 5818 5818 5819 5819 5819 5818 5818 5818 5819 5820 5822 5824
5885 5885 5887 5885 5883 5883 5879 5879 5879 5875 5872 5871 5869 5868 5870 5870 5867 5863 5859 5854 5850 5847 5842 5837 5834 5830 5827 5823 5820 5817 5815 5815 5813 5812 5810 5810 5810 5809 5808 5809 5810 5810 5810 5808 5808 5810 5811 5812 5814
5881 5881 5882 5883 5881 5878 5876 5875 5873 5875 5871 5867 5863 5860 5862 5863 5860 5856 5854 5849 5845 5840 5835 5830 5826 5823 5820 5817 5814 5811 5809 5806 5806 5804 5802 5802 5801 5800 5800 5799 5798 5798 5800 5799 5799 5800 5801 5804 5806
5877 5877 5877 5879 5878 5877 5872 5868 5867 5867 5868 5866 5861 5857 5857 5855 5852 5850 5848 5843 5839 5835 5830 5825 5821 5818 5815 5812 5808 5805 5802 5800 5799 5797 5797 5796 5794 5792 5792 5791 5791 5789 5787 5788 5789 5790 5792 5793 5796
5873 5872 5873 5873 5876 5873 5870 5864 5862 5861 5862 5859 5856 5853 5853 5851 5847 5846 5843 5839 5835 5832 5826 5821 5817 5814 5811 5808 5805 5801 5797 5794 5792 5792 5791 5788 5786 5785 5783 5782 5780 5779 5779 5778 5779 5780 5782 5783 5786
5866 5864 5867 5868 5871 5869 5868 5861 5859 5856 5855 5854 5851 5848 5849 5845 5842 5841 5838 5834 5830 5827 5822 5816 5812 5809 5805 5801 5798 5795 5791 5788 5787 5785 5784 5781 5778 5776 5774 5773 5771 5770 5769 5770 5770 5771 5772 5773 5775
5860 5857 5862 5863 5864 5862 5863 5860 5855 5853 5850 5847 5844 5842 5841 5837 5835 5836 5832 5831 5826 5821 5816 5812 5807 5803 5799 5795 5792 5789 5787 5784 5780 5778 5776 5774 5771 5768 5766 5764 5763 5761 5759 5760 5760 5761 5762 5763 5764
5853 5850 5855 5858 5856 5855 5857 5852 5854 5848 5844 5842 5837 5835 5835 5831 5830 5831 5829 5826 5821 5816 5812 5807 5803 5800 5796 5793 5789 5785 5782 5779 5775 5772 5768 5765 5763 5760 5758 5756 5754 5752 5750 5749 5749 5749 5751 5752 5753
5845 5842 5848 5852 5849 5847 5847 5844 5844 5842 5840 5838 5834 5830 5828 5826 5827 5827 5824 5821 5817 5813 5808 5803 5799 5795 5791 5787 5783 5780 5776 5772 5768 5764 5760 5757 5753 5751 5750 5748 5746 5744 5741 5739 5738 5738 5738 5739 5741
5837 5834 5844 5844 5844 5839 5838 5837 5836 5831 5832 5832 5827 5826 5822 5825 5824 5822 5818 5816 5812 5808 5804 5799 5795 5791 5786 5782 5778 5774 5769 5765 5761 5757 5753 5750 5747 5744 5742 5740 5737 5734 5732 5730 5728 5726 5726 5727 5728
5825 5830 5834 5836 5837 5832 5829 5826 5824 5824 5822 5824 5821 5819 5819 5819 5818 5815 5812 5810 5807 5802 5797 5794 5790 5786 5781 5777 5773 5767 5762 5758 5754 5750 5745 5741 5738 5736 5734 5732 5729 5724 5722 5719 5717 5716 5715 5717 5719
5818 5827 5826 5826 5827 5826 5821 5817 5814 5815 5819 5816 5814 5812 5813 5812 5812 5809 5807 5804 5800 5796 5791 5788 5783 5778 5775 5771 5765 5759 5755 5751 5748 5743 5739 5735 5731 5729 5726 5724 5720 5717 5713 5710 5708 5708 5708 5710 5713
5819 5814 5817 5819 5820 5818 5812 5809 5808 5814 5812 5810 5808 5807 5808 5809 5806 5803 5801 5799 5795 5791 5785 5781 5777 5773 5769 5763 5757 5754 5750 5746 5743 5738 5733 5728 5724 5721 5718 5715 5711 5707 5704 5702 5701 5702 5703 5705 5707
5807 5803 5808 5814 5814 5814 5808 5803 5807 5807 5805 5804 5802 5803 5803 5804 5798 5797 5795 5792 5789 5786 5781 5777 5773 5768 5763 5758 5753 5749 5745 5742 5737 5732 5727 5722 5718 5715 5711 5706 5702 5698 5696 5695 5695 5695 5696 5698 5701
5796 5795 5802 5810 5812 5813 5802 5801 5803 5799 5799 5800 5799 5798 5796 5795 5794 5792 5789 5787 5784 5781 5777 5773 5769 5764 5759 5754 5750 5746 5741 5736 5732 5727 5722 5717 5713 5708 5704 5699 5695 5692 5690 5687 5686 5686 5687 5689 5694
5785 5790 5794 5800 5805 5801 5795 5795 5796 5795 5794 5795 5793 5792 5790 5790 5789 5787 5784 5782 5779 5776 5772 5768 5764 5760 5756 5751 5745 5741 5736 5732 5728 5723 5717 5712 5707 5703 5698 5693 5689 5686 5683 5680 5679 5678 5679 5682 5688
5780 5783 5788 5793 5800 5792 5789 5788 5793 5790 5787 5787 5787 5786 5785 5784 5782 5782 5781 5778 5775 5771 5767 5763 5760 5756 5751 5746 5742 5738 5733 5728 5724 5718 5712 5706 5701 5697 5693 5688 5684 5681 5678 5675 5673 5673 5674 5678 5684
5775 5775 5780 5788 5792 5783 5784 5783 5791 5788 5784 5782 5782 5783 5780 5778 5777 5777 5776 5774 5770 5766 5762 5758 5755 5750 5746 5742 5738 5734 5729 5724 5719 5712 5706 5700 5695 5692 5688 5683 5679 5676 5673 5671 5670 5671 5673 5676 5682
5762 5766 5772 5780 5787 5776 5780 5777 5781 5781 5779 5779 5779 5778 5775 5774 5774 5773 5772 5769 5766 5762 5758 5754 5750 5745 5743 5739 5734 5730 5725 5720 5713 5706 5702 5697 5692 5688 5684 5679 5676 5673 5669 5667 5668 5670 5673 5677 5682
5750 5757 5769 5774 5778 5771 5770 5770 5775 5776 5774 5775 5775 5772 5771 5770 5769 5768 5767 5765 5761 5758 5754 5750 5745 5742 5740 5735 5731 5726 5722 5718 5711 5704 5699 5693 5688 5683 5679 5675 5673 5671 5668 5665 5667 5671 5676 5680 5686
5742 5756 5763 5766 5767 5768 5764 5758 5769 5769 5769 5769 5768 5767 5767 5766 5765 5764 5763 5759 5756 5754 5750 5745 5741 5740 5736 5732 5728 5723 5719 5714 5708 5702 5696 5690 5684 5678 5675 5673 5672 5671 5669 5668 5670 5674 5679 5684 5689
5742 5751 5755 5757 5756 5756 5760 5754 5764 5764 5764 5766 5763 5763 5763 5763 5761 5759 5756 5754 5752 5749 5746 5741 5739 5736 5733 5729 5725 5720 5717 5711 5704 5699 5692 5687 5682 5677 5674 5673 5672 5672 5673 5673 5676 5680 5684 5688 5693
5735 5741 5745 5745 5746 5740 5756 5752 5760 5760 5761 5763 5761 5761 5760 5758 5755 5754 5751 5749 5747 5745 5742 5739 5736 5733 5729 5725 5721 5718 5714 5708 5702 5697 5690 5685 5680 5677 5674 5673 5673 5674 5676 5678 5680 5684 5689 5693 5697
5727 5731 5734 5736 5734 5734 5752 5748 5757 5755 5758 5757 5758 5759 5755 5753 5751 5748 5747 5745 5744 5741 5739 5736 5733 5730 5727 5723 5719 5716 5711 5706 5700 5694 5688 5684 5680 5677 5676 5675 5676 5678 5680 5682 5685 5688 5693 5698 5702
5723 5726 5727 5726 5729 5740 5745 5744 5753 5752 5751 5752 5755 5754 5752 5750 5748 5746 5744 5742 5741 5738 5736 5733 5731 5728 5724 5722 5718 5715 5709 5704 5698 5692 5688 5684 5681 5679 5679 5679 5679 5681 5683 5686 5690 5695 5699 5703 5707
5717 5712 5725 5728 5733 5734 5736 5746 5745 5747 5748 5751 5752 5751 5749 5747 5745 5742 5741 5739 5738 5736 5733 5731 5729 5726 5723 5720 5716 5712 5708 5703 5697 5693 5688 5685 5683 5683 5683 5682 5683 5684 5687 5691 5695 5698 5703 5706 5710
5704 5706 5716 5716 5720 5724 5735 5739 5742 5744 5745 5747 5749 5748 5745 5745 5742 5739 5737 5736 5736 5733 5732 5729 5726 5723 5721 5718 5715 5711 5708 5702 5697 5693 5689 5687 5686 5686 5687 5687 5688 5689 5691 5695 5699 5702 5706 5710 5713
5694 5693 5705 5712 5716 5723 5731 5737 5739 5739 5743 5745 5745 5745 5744 5743 5738 5736 5736 5736 5734 5732 5730 5727 5725 5723 5721 5717 5714 5711 5708 5703 5699 5695 5691 5689 5689 5690 5691 5691 5692 5693 5694 5697 5700 5704 5709 5714 5718
5687 5696 5704 5707 5714 5721 5727 5733 5733 5736 5739 5741 5741 5742 5742 5739 5736 5736 5735 5734 5733 5731 5729 5727 5725 5722 5721 5718 5715 5713 5709 5705 5701 5698 5694 5693 5692 5694 5694 5696 5696 5698 5700 5701 5704 5707 5711 5715 5720